Year,Month,Day,Hour,Minute,Value (Times are PST for temperature in C)
2011,05,16,09,10,9.90
2011,05,16,09,11,9.90
2011,05,16,09,12,9.90
2011,05,16,09,13,9.90
2011,05,16,09,14,9.90
2011,05,16,09,15,9.90
2011,05,16,09,16,9.90
2011,05,16,09,17,9.90
2011,05,16,09,18,9.90
2011,05,16,09,19,9.90
2011,05,16,09,20,9.90
2011,05,16,09,21,9.90
2011,05,16,09,22,10.00
2011,05,16,09,23,10.00
2011,05,16,09,24,10.00
2011,05,16,09,25,10.00
2011,05,16,09,26,10.00
2011,05,16,09,27,10.00
2011,05,16,09,28,10.00
2011,05,16,09,29,10.00
2011,05,16,09,30,10.00
2011,05,16,09,31,10.00
2011,05,16,09,32,10.00
2011,05,16,09,33,10.00
2011,05,16,09,34,10.00
2011,05,16,09,35,10.00
2011,05,16,09,36,10.00
2011,05,16,09,37,10.00
2011,05,16,09,38,10.00
2011,05,16,09,39,10.00
2011,05,16,09,40,10.00
2011,05,16,09,41,10.00
2011,05,16,09,42,10.00
2011,05,16,09,43,10.00
2011,05,16,09,44,10.00
2011,05,16,09,45,10.00
2011,05,16,09,46,10.00
2011,05,16,09,47,10.00
2011,05,16,09,48,10.00
2011,05,16,09,49,10.00
2011,05,16,09,50,10.00
2011,05,16,09,51,10.00
2011,05,16,09,52,10.00
2011,05,16,09,53,10.00
2011,05,16,09,54,10.00
2011,05,16,09,55,10.10
2011,05,16,09,56,10.10
2011,05,16,09,57,10.10
2011,05,16,09,58,10.10
2011,05,16,09,59,10.10
2011,05,16,10,00,10.10
2011,05,16,10,01,10.10
2011,05,16,10,02,10.10
2011,05,16,10,03,10.10
2011,05,16,10,04,10.20
2011,05,16,10,05,10.20
2011,05,16,10,06,10.20
2011,05,16,10,07,10.20
2011,05,16,10,08,10.20
2011,05,16,10,09,10.30
2011,05,16,10,10,10.30
2011,05,16,10,11,10.30
2011,05,16,10,12,10.30
2011,05,16,10,13,10.30
2011,05,16,10,14,10.30
2011,05,16,10,15,10.30
2011,05,16,10,16,10.30
2011,05,16,10,17,10.30
2011,05,16,10,18,10.30
2011,05,16,10,19,10.30
2011,05,16,10,20,10.40
2011,05,16,10,21,10.40
2011,05,16,10,22,10.40
2011,05,16,10,23,10.40
2011,05,16,10,24,10.40
2011,05,16,10,25,10.40
2011,05,16,10,26,10.40
2011,05,16,10,27,10.50
2011,05,16,10,28,10.50
2011,05,16,10,29,10.50
2011,05,16,10,30,10.60
2011,05,16,10,31,10.60
2011,05,16,10,32,10.60
2011,05,16,10,33,10.60
2011,05,16,10,34,10.60
2011,05,16,10,35,10.70
2011,05,16,10,36,10.60
2011,05,16,10,37,10.60
2011,05,16,10,38,10.60
2011,05,16,10,39,10.60
2011,05,16,10,40,10.60
2011,05,16,10,41,10.60
2011,05,16,10,42,10.60
2011,05,16,10,43,10.60
2011,05,16,10,44,10.60
2011,05,16,10,45,10.60
2011,05,16,10,46,10.60
2011,05,16,10,47,10.60
2011,05,16,10,48,10.60
2011,05,16,10,49,10.60
2011,05,16,10,50,10.60
2011,05,16,10,51,10.60
2011,05,16,10,52,10.60
2011,05,16,10,53,10.60
2011,05,16,10,54,10.60
2011,05,16,10,55,10.60
2011,05,16,10,56,10.60
2011,05,16,10,57,10.60
2011,05,16,10,58,10.60
2011,05,16,10,59,10.60
2011,05,16,11,00,10.60
2011,05,16,11,01,10.70
2011,05,16,11,02,10.70
2011,05,16,11,03,10.60
2011,05,16,11,04,10.60
2011,05,16,11,05,10.60
2011,05,16,11,06,10.60
2011,05,16,11,07,10.60
2011,05,16,11,08,10.60
2011,05,16,11,09,10.60
2011,05,16,11,10,10.60
2011,05,16,11,11,10.60
2011,05,16,11,12,10.60
2011,05,16,11,13,10.60
2011,05,16,11,14,10.70
2011,05,16,11,15,10.70
2011,05,16,11,16,10.60
2011,05,16,11,17,10.60
2011,05,16,11,18,10.60
2011,05,16,11,19,10.60
2011,05,16,11,20,10.60
2011,05,16,11,21,10.60
2011,05,16,11,22,10.50
2011,05,16,11,23,10.50
2011,05,16,11,24,10.50
2011,05,16,11,25,10.50
2011,05,16,11,26,10.50
2011,05,16,11,27,10.50
2011,05,16,11,28,10.50
2011,05,16,11,29,10.50
2011,05,16,11,30,10.50
2011,05,16,11,31,10.60
2011,05,16,11,32,10.60
2011,05,16,11,33,10.60
2011,05,16,11,34,10.60
2011,05,16,11,35,10.60
2011,05,16,11,36,10.70
2011,05,16,11,37,10.70
2011,05,16,11,38,10.80
2011,05,16,11,39,10.80
2011,05,16,11,40,10.80
2011,05,16,11,41,10.80
2011,05,16,11,42,10.80
2011,05,16,11,43,10.80
2011,05,16,11,44,10.90
2011,05,16,11,45,10.90
2011,05,16,11,46,10.90
2011,05,16,11,47,10.90
2011,05,16,11,48,10.90
2011,05,16,11,49,11.00
2011,05,16,11,50,11.00
2011,05,16,11,51,10.90
2011,05,16,11,52,10.90
2011,05,16,11,53,10.90
2011,05,16,11,54,10.90
2011,05,16,11,55,11.00
2011,05,16,11,56,11.00
2011,05,16,11,57,11.00
2011,05,16,11,58,11.10
2011,05,16,11,59,11.10
2011,05,16,12,00,11.10
2011,05,16,12,01,11.10
2011,05,16,12,02,11.20
2011,05,16,12,03,11.20
2011,05,16,12,04,11.20
2011,05,16,12,05,11.20
2011,05,16,12,06,11.20
2011,05,16,12,07,11.20
2011,05,16,12,08,11.20
2011,05,16,12,09,11.20
2011,05,16,12,10,11.30
2011,05,16,12,11,11.30
2011,05,16,12,12,11.40
2011,05,16,12,13,11.40
2011,05,16,12,14,11.50
2011,05,16,12,15,11.60
2011,05,16,12,16,11.60
2011,05,16,12,17,11.70
2011,05,16,12,18,11.70
2011,05,16,12,19,11.70
2011,05,16,12,20,11.70
2011,05,16,12,21,11.80
2011,05,16,12,22,11.80
2011,05,16,12,23,11.80
2011,05,16,12,24,11.70
2011,05,16,12,25,11.70
2011,05,16,12,26,11.70
2011,05,16,12,27,11.70
2011,05,16,12,28,11.70
2011,05,16,12,29,11.70
2011,05,16,12,30,11.70
2011,05,16,12,31,11.70
2011,05,16,12,32,11.70
2011,05,16,12,33,11.60
2011,05,16,12,34,11.60
2011,05,16,12,35,11.60
2011,05,16,12,36,11.60
2011,05,16,12,37,11.60
2011,05,16,12,38,11.60
2011,05,16,12,39,11.60
2011,05,16,12,40,11.60
2011,05,16,12,41,11.60
2011,05,16,12,42,11.60
2011,05,16,12,43,11.60
2011,05,16,12,44,11.60
2011,05,16,12,45,11.60
2011,05,16,12,46,11.60
2011,05,16,12,47,11.60
2011,05,16,12,48,11.60
2011,05,16,12,49,11.60
2011,05,16,12,50,11.60
2011,05,16,12,51,11.70
2011,05,16,12,52,11.70
2011,05,16,12,53,11.80
2011,05,16,12,54,11.80
2011,05,16,12,55,11.90
2011,05,16,12,56,11.90
2011,05,16,12,57,11.90
2011,05,16,12,58,11.90
2011,05,16,12,59,11.90
2011,05,16,13,00,12.00
2011,05,16,13,01,12.10
2011,05,16,13,02,12.10
2011,05,16,13,03,12.00
2011,05,16,13,04,12.00
2011,05,16,13,05,12.10
2011,05,16,13,06,12.10
2011,05,16,13,07,12.20
2011,05,16,13,08,12.20
2011,05,16,13,09,12.30
2011,05,16,13,10,12.30
2011,05,16,13,11,12.30
2011,05,16,13,12,12.30
2011,05,16,13,13,12.30
2011,05,16,13,14,12.40
2011,05,16,13,15,12.40
2011,05,16,13,16,12.40
2011,05,16,13,17,12.40
2011,05,16,13,18,12.30
2011,05,16,13,19,12.30
2011,05,16,13,20,12.30
2011,05,16,13,21,12.30
2011,05,16,13,22,12.40
2011,05,16,13,23,12.50
2011,05,16,13,24,12.50
2011,05,16,13,25,12.60
2011,05,16,13,26,12.70
2011,05,16,13,27,12.70
2011,05,16,13,28,12.80
2011,05,16,13,29,12.80
2011,05,16,13,30,12.80
2011,05,16,13,31,12.70
2011,05,16,13,32,12.70
2011,05,16,13,33,12.80
2011,05,16,13,34,12.80
2011,05,16,13,35,12.80
2011,05,16,13,36,12.90
2011,05,16,13,37,12.90
2011,05,16,13,38,12.90
2011,05,16,13,39,13.00
2011,05,16,13,40,13.10
2011,05,16,13,41,13.10
2011,05,16,13,42,13.10
2011,05,16,13,43,13.10
2011,05,16,13,44,13.10
2011,05,16,13,45,13.20
2011,05,16,13,46,13.20
2011,05,16,13,47,13.20
2011,05,16,13,48,13.20
2011,05,16,13,49,13.20
2011,05,16,13,50,13.20
2011,05,16,13,51,13.20
2011,05,16,13,52,13.10
2011,05,16,13,53,13.10
2011,05,16,13,54,13.10
2011,05,16,13,55,13.10
2011,05,16,13,56,13.10
2011,05,16,13,57,13.10
2011,05,16,13,58,13.00
2011,05,16,13,59,13.00
2011,05,16,14,00,13.10
2011,05,16,14,01,13.10
2011,05,16,14,02,13.20
2011,05,16,14,03,13.20
2011,05,16,14,04,13.20
2011,05,16,14,05,13.30
2011,05,16,14,06,13.40
2011,05,16,14,07,13.50
2011,05,16,14,08,13.60
2011,05,16,14,09,13.60
2011,05,16,14,10,13.60
2011,05,16,14,11,13.60
2011,05,16,14,12,13.60
2011,05,16,14,13,13.70
2011,05,16,14,14,13.70
2011,05,16,14,15,13.60
2011,05,16,14,16,13.50
2011,05,16,14,17,13.50
2011,05,16,14,18,13.50
2011,05,16,14,19,13.50
2011,05,16,14,20,13.50
2011,05,16,14,21,13.60
2011,05,16,14,22,13.70
2011,05,16,14,23,13.70
2011,05,16,14,24,13.70
2011,05,16,14,25,13.70
2011,05,16,14,26,13.70
2011,05,16,14,27,13.70
2011,05,16,14,28,13.80
2011,05,16,14,29,13.90
2011,05,16,14,30,14.00
2011,05,16,14,31,14.00
2011,05,16,14,32,14.00
2011,05,16,14,33,14.00
2011,05,16,14,34,13.90
2011,05,16,14,35,13.90
2011,05,16,14,36,14.00
2011,05,16,14,37,14.00
2011,05,16,14,38,14.10
2011,05,16,14,39,14.10
2011,05,16,14,40,14.20
2011,05,16,14,41,14.30
2011,05,16,14,42,14.30
2011,05,16,14,43,14.40
2011,05,16,14,44,14.40
2011,05,16,14,45,14.40
2011,05,16,14,46,14.40
2011,05,16,14,47,14.50
2011,05,16,14,48,14.50
2011,05,16,14,49,14.50
2011,05,16,14,50,14.50
2011,05,16,14,51,14.60
2011,05,16,14,52,14.60
2011,05,16,14,53,14.60
2011,05,16,14,54,14.50
2011,05,16,14,55,14.40
2011,05,16,14,56,14.30
2011,05,16,14,57,14.20
2011,05,16,14,58,14.20
2011,05,16,14,59,14.10
2011,05,16,15,00,14.00
2011,05,16,15,01,13.90
2011,05,16,15,02,13.90
2011,05,16,15,03,13.90
2011,05,16,15,04,13.90
2011,05,16,15,05,13.90
2011,05,16,15,06,14.00
2011,05,16,15,07,14.00
2011,05,16,15,08,14.00
2011,05,16,15,09,14.00
2011,05,16,15,10,13.90
2011,05,16,15,11,13.90
2011,05,16,15,12,13.80
2011,05,16,15,13,13.90
2011,05,16,15,14,13.90
2011,05,16,15,15,13.90
2011,05,16,15,16,13.90
2011,05,16,15,17,13.90
2011,05,16,15,18,14.00
2011,05,16,15,19,13.90
2011,05,16,15,20,13.90
2011,05,16,15,21,13.90
2011,05,16,15,22,13.80
2011,05,16,15,23,13.80
2011,05,16,15,24,13.70
2011,05,16,15,25,13.60
2011,05,16,15,26,13.60
2011,05,16,15,27,13.60
2011,05,16,15,28,13.60
2011,05,16,15,29,13.60
2011,05,16,15,30,13.60
2011,05,16,15,31,13.60
2011,05,16,15,32,13.60
2011,05,16,15,33,13.70
2011,05,16,15,34,13.70
2011,05,16,15,35,13.80
2011,05,16,15,36,13.80
2011,05,16,15,37,13.80
2011,05,16,15,38,13.80
2011,05,16,15,39,13.70
2011,05,16,15,40,13.70
2011,05,16,15,41,13.70
2011,05,16,15,42,13.70
2011,05,16,15,43,13.70
2011,05,16,15,44,13.80
2011,05,16,15,45,13.80
2011,05,16,15,46,13.80
2011,05,16,15,47,13.80
2011,05,16,15,48,13.70
2011,05,16,15,49,13.70
2011,05,16,15,50,13.70
2011,05,16,15,51,13.70
2011,05,16,15,52,13.70
2011,05,16,15,53,13.60
2011,05,16,15,54,13.60
2011,05,16,15,55,13.60
2011,05,16,15,56,13.60
2011,05,16,15,57,13.50
2011,05,16,15,58,13.50
2011,05,16,15,59,13.50
2011,05,16,16,00,13.50
2011,05,16,16,01,13.50
2011,05,16,16,02,13.50
2011,05,16,16,03,13.50
2011,05,16,16,04,13.50
2011,05,16,16,05,13.50
2011,05,16,16,06,13.50
2011,05,16,16,07,13.50
2011,05,16,16,08,13.40
2011,05,16,16,09,13.40
2011,05,16,16,10,13.40
2011,05,16,16,11,13.40
2011,05,16,16,12,13.40
2011,05,16,16,13,13.40
2011,05,16,16,14,13.50
2011,05,16,16,15,13.50
2011,05,16,16,16,13.50
2011,05,16,16,17,13.50
2011,05,16,16,18,13.60
2011,05,16,16,19,13.50
2011,05,16,16,20,13.40
2011,05,16,16,21,13.40
2011,05,16,16,22,13.40
2011,05,16,16,23,13.40
2011,05,16,16,24,13.30
2011,05,16,16,25,13.30
2011,05,16,16,26,13.30
2011,05,16,16,27,13.30
2011,05,16,16,28,13.30
2011,05,16,16,29,13.30
2011,05,16,16,30,13.30
2011,05,16,16,31,13.30
2011,05,16,16,32,13.30
2011,05,16,16,33,13.30
2011,05,16,16,34,13.30
2011,05,16,16,35,13.30
2011,05,16,16,36,13.30
2011,05,16,16,37,13.30
2011,05,16,16,38,13.30
2011,05,16,16,39,13.40
2011,05,16,16,40,13.40
2011,05,16,16,41,13.40
2011,05,16,16,42,13.40
2011,05,16,16,43,13.40
2011,05,16,16,44,13.40
2011,05,16,16,45,13.30
2011,05,16,16,46,13.30
2011,05,16,16,47,13.30
2011,05,16,16,48,13.30
2011,05,16,16,49,13.30
2011,05,16,16,50,13.30
2011,05,16,16,51,13.30
2011,05,16,16,52,13.30
2011,05,16,16,53,13.30
2011,05,16,16,54,13.20
2011,05,16,16,55,13.20
2011,05,16,16,56,13.20
2011,05,16,16,57,13.20
2011,05,16,16,58,13.20
2011,05,16,16,59,13.20
2011,05,16,17,00,13.20
2011,05,16,17,01,13.20
2011,05,16,17,02,13.20
2011,05,16,17,03,13.20
2011,05,16,17,04,13.20
2011,05,16,17,05,13.20
2011,05,16,17,06,13.10
2011,05,16,17,07,13.10
2011,05,16,17,08,13.10
2011,05,16,17,09,13.10
2011,05,16,17,10,13.10
2011,05,16,17,11,13.10
2011,05,16,17,12,13.10
2011,05,16,17,13,13.10
2011,05,16,17,14,13.10
2011,05,16,17,15,13.10
2011,05,16,17,16,13.10
2011,05,16,17,17,13.10
2011,05,16,17,18,13.10
2011,05,16,17,19,13.20
2011,05,16,17,20,13.20
2011,05,16,17,21,13.30
2011,05,16,17,22,13.30
2011,05,16,17,23,13.30
2011,05,16,17,24,13.30
2011,05,16,17,25,13.40
2011,05,16,17,26,13.40
2011,05,16,17,27,13.40
2011,05,16,17,28,13.40
2011,05,16,17,29,13.50
2011,05,16,17,30,13.50
2011,05,16,17,31,13.50
2011,05,16,17,32,13.40
2011,05,16,17,33,13.40
2011,05,16,17,34,13.40
2011,05,16,17,35,13.40
2011,05,16,17,36,13.40
2011,05,16,17,37,13.40
2011,05,16,17,38,13.40
2011,05,16,17,39,13.40
2011,05,16,17,40,13.30
2011,05,16,17,41,13.30
2011,05,16,17,42,13.30
2011,05,16,17,43,13.30
2011,05,16,17,44,13.40
2011,05,16,17,45,13.40
2011,05,16,17,46,13.40
2011,05,16,17,47,13.40
2011,05,16,17,48,13.40
2011,05,16,17,49,13.40
2011,05,16,17,50,13.40
2011,05,16,17,51,13.40
2011,05,16,17,52,13.40
2011,05,16,17,53,13.40
2011,05,16,17,54,13.40
2011,05,16,17,55,13.40
2011,05,16,17,56,13.40
2011,05,16,17,57,13.40
2011,05,16,17,58,13.40
2011,05,16,17,59,13.40
2011,05,16,18,00,13.40
2011,05,16,18,01,13.40
2011,05,16,18,02,13.30
2011,05,16,18,03,13.30
2011,05,16,18,04,13.30
2011,05,16,18,05,13.30
2011,05,16,18,06,13.30
2011,05,16,18,07,13.20
2011,05,16,18,08,13.20
2011,05,16,18,09,13.20
2011,05,16,18,10,13.10
2011,05,16,18,11,13.00
2011,05,16,18,12,12.90
2011,05,16,18,13,12.80
2011,05,16,18,14,12.80
2011,05,16,18,15,12.80
2011,05,16,18,16,12.80
2011,05,16,18,17,12.80
2011,05,16,18,18,12.80
2011,05,16,18,19,12.80
2011,05,16,18,20,12.80
2011,05,16,18,21,12.70
2011,05,16,18,22,12.70
2011,05,16,18,23,12.70
2011,05,16,18,24,12.70
2011,05,16,18,25,12.70
2011,05,16,18,26,12.70
2011,05,16,18,27,12.60
2011,05,16,18,28,12.60
2011,05,16,18,29,12.50
2011,05,16,18,30,12.50
2011,05,16,18,31,12.50
2011,05,16,18,32,12.40
2011,05,16,18,33,12.40
2011,05,16,18,34,12.30
2011,05,16,18,35,12.30
2011,05,16,18,36,12.30
2011,05,16,18,37,12.30
2011,05,16,18,38,12.30
2011,05,16,18,39,12.30
2011,05,16,18,40,12.40
2011,05,16,18,41,12.40
2011,05,16,18,42,12.40
2011,05,16,18,43,12.40
2011,05,16,18,44,12.40
2011,05,16,18,45,12.50
2011,05,16,18,46,12.50
2011,05,16,18,47,12.50
2011,05,16,18,48,12.60
2011,05,16,18,49,12.60
2011,05,16,18,50,12.50
2011,05,16,18,51,12.50
2011,05,16,18,52,12.50
2011,05,16,18,53,12.40
2011,05,16,18,54,12.40
2011,05,16,18,55,12.40
2011,05,16,18,56,12.30
2011,05,16,18,57,12.30
2011,05,16,18,58,12.30
2011,05,16,18,59,12.30
2011,05,16,19,00,12.30
2011,05,16,19,01,12.30
2011,05,16,19,02,12.20
2011,05,16,19,03,12.20
2011,05,16,19,04,12.20
2011,05,16,19,05,12.20
2011,05,16,19,06,12.10
2011,05,16,19,07,12.10
2011,05,16,19,08,12.00
2011,05,16,19,09,12.00
2011,05,16,19,10,11.90
2011,05,16,19,11,11.90
2011,05,16,19,12,11.80
2011,05,16,19,13,11.80
2011,05,16,19,14,11.80
2011,05,16,19,15,11.80
2011,05,16,19,16,11.80
2011,05,16,19,17,11.80
2011,05,16,19,18,11.80
2011,05,16,19,19,11.80
2011,05,16,19,20,11.70
2011,05,16,19,21,11.70
2011,05,16,19,22,11.70
2011,05,16,19,23,11.70
2011,05,16,19,24,11.70
2011,05,16,19,25,11.70
2011,05,16,19,26,11.60
2011,05,16,19,27,11.60
2011,05,16,19,28,11.60
2011,05,16,19,29,11.60
2011,05,16,19,30,11.60
2011,05,16,19,31,11.60
2011,05,16,19,32,11.60
2011,05,16,19,33,11.60
2011,05,16,19,34,11.60
2011,05,16,19,35,11.60
2011,05,16,19,36,11.60
2011,05,16,19,37,11.60
2011,05,16,19,38,11.60
2011,05,16,19,39,11.50
2011,05,16,19,40,11.50
2011,05,16,19,41,11.50
2011,05,16,19,42,11.50
2011,05,16,19,43,11.40
2011,05,16,19,44,11.40
2011,05,16,19,45,11.40
2011,05,16,19,46,11.40
2011,05,16,19,47,11.30
2011,05,16,19,48,11.30
2011,05,16,19,49,11.30
2011,05,16,19,50,11.20
2011,05,16,19,51,11.20
2011,05,16,19,52,11.20
2011,05,16,19,53,11.20
2011,05,16,19,54,11.10
2011,05,16,19,55,11.10
2011,05,16,19,56,11.10
2011,05,16,19,57,11.10
2011,05,16,19,58,11.00
2011,05,16,19,59,11.00
2011,05,16,20,00,11.00
2011,05,16,20,01,10.90
2011,05,16,20,02,10.90
2011,05,16,20,03,10.90
2011,05,16,20,04,10.90
2011,05,16,20,05,10.90
2011,05,16,20,06,10.90
2011,05,16,20,07,10.80
2011,05,16,20,08,10.80
2011,05,16,20,09,10.80
2011,05,16,20,10,10.80
2011,05,16,20,11,10.70
2011,05,16,20,12,10.70
2011,05,16,20,13,10.70
2011,05,16,20,14,10.60
2011,05,16,20,15,10.60
2011,05,16,20,16,10.60
2011,05,16,20,17,10.60
2011,05,16,20,18,10.50
2011,05,16,20,19,10.50
2011,05,16,20,20,10.50
2011,05,16,20,21,10.50
2011,05,16,20,22,10.40
2011,05,16,20,23,10.40
2011,05,16,20,24,10.40
2011,05,16,20,25,10.40
2011,05,16,20,26,10.40
2011,05,16,20,27,10.30
2011,05,16,20,28,10.30
2011,05,16,20,29,10.30
2011,05,16,20,30,10.30
2011,05,16,20,31,10.30
2011,05,16,20,32,10.20
2011,05,16,20,33,10.20
2011,05,16,20,34,10.10
2011,05,16,20,35,10.00
2011,05,16,20,36,10.00
2011,05,16,20,37,10.00
2011,05,16,20,38,9.90
2011,05,16,20,39,9.90
2011,05,16,20,40,9.90
2011,05,16,20,41,9.90
2011,05,16,20,42,9.90
2011,05,16,20,43,9.80
2011,05,16,20,44,9.80
2011,05,16,20,45,9.80
2011,05,16,20,46,9.80
2011,05,16,20,47,9.80
2011,05,16,20,48,9.80
2011,05,16,20,49,9.80
2011,05,16,20,50,9.80
2011,05,16,20,51,9.80
2011,05,16,20,52,9.80
2011,05,16,20,53,9.70
2011,05,16,20,54,9.70
2011,05,16,20,55,9.70
2011,05,16,20,56,9.70
2011,05,16,20,57,9.70
2011,05,16,20,58,9.70
2011,05,16,20,59,9.70
2011,05,16,21,00,9.70
2011,05,16,21,01,9.70
2011,05,16,21,02,9.70
2011,05,16,21,03,9.60
2011,05,16,21,04,9.60
2011,05,16,21,05,9.50
2011,05,16,21,06,9.50
2011,05,16,21,07,9.40
2011,05,16,21,08,9.40
2011,05,16,21,09,9.50
2011,05,16,21,10,9.50
2011,05,16,21,11,9.50
2011,05,16,21,12,9.50
2011,05,16,21,13,9.50
2011,05,16,21,14,9.50
2011,05,16,21,15,9.50
2011,05,16,21,16,9.50
2011,05,16,21,17,9.50
2011,05,16,21,18,9.40
2011,05,16,21,19,9.40
2011,05,16,21,20,9.40
2011,05,16,21,21,9.40
2011,05,16,21,22,9.40
2011,05,16,21,23,9.40
2011,05,16,21,24,9.40
2011,05,16,21,25,9.40
2011,05,16,21,26,9.40
2011,05,16,21,27,9.40
2011,05,16,21,28,9.40
2011,05,16,21,29,9.40
2011,05,16,21,30,9.40
2011,05,16,21,31,9.40
2011,05,16,21,32,9.40
2011,05,16,21,33,9.40
2011,05,16,21,34,9.40
2011,05,16,21,35,9.40
2011,05,16,21,36,9.40
2011,05,16,21,37,9.40
2011,05,16,21,38,9.30
2011,05,16,21,39,9.30
2011,05,16,21,40,9.30
2011,05,16,21,41,9.30
2011,05,16,21,42,9.30
2011,05,16,21,43,9.30
2011,05,16,21,44,9.30
2011,05,16,21,45,9.30
2011,05,16,21,46,9.30
2011,05,16,21,47,9.30
2011,05,16,21,48,9.30
2011,05,16,21,49,9.30
2011,05,16,21,50,9.30
2011,05,16,21,51,9.30
2011,05,16,21,52,9.30
2011,05,16,21,53,9.30
2011,05,16,21,54,9.30
2011,05,16,21,55,9.30
2011,05,16,21,56,9.30
2011,05,16,21,57,9.20
2011,05,16,21,58,9.20
2011,05,16,21,59,9.20
2011,05,16,22,00,9.20
2011,05,16,22,01,9.20
2011,05,16,22,02,9.20
2011,05,16,22,03,9.20
2011,05,16,22,04,9.20
2011,05,16,22,05,9.20
2011,05,16,22,06,9.20
2011,05,16,22,07,9.20
2011,05,16,22,08,9.30
2011,05,16,22,09,9.30
2011,05,16,22,10,9.30
2011,05,16,22,11,9.30
2011,05,16,22,12,9.30
2011,05,16,22,13,9.30
2011,05,16,22,14,9.30
2011,05,16,22,15,9.30
2011,05,16,22,16,9.30
2011,05,16,22,17,9.30
2011,05,16,22,18,9.30
2011,05,16,22,19,9.30
2011,05,16,22,20,9.30
2011,05,16,22,21,9.30
2011,05,16,22,22,9.30
2011,05,16,22,23,9.30
2011,05,16,22,24,9.30
2011,05,16,22,25,9.30
2011,05,16,22,26,9.20
2011,05,16,22,27,9.20
2011,05,16,22,28,9.20
2011,05,16,22,29,9.20
2011,05,16,22,30,9.20
2011,05,16,22,31,9.10
2011,05,16,22,32,9.10
2011,05,16,22,33,9.10
2011,05,16,22,34,9.10
2011,05,16,22,35,9.00
2011,05,16,22,36,9.00
2011,05,16,22,37,9.00
2011,05,16,22,38,9.00
2011,05,16,22,39,9.00
2011,05,16,22,40,9.00
2011,05,16,22,41,9.00
2011,05,16,22,42,9.00
2011,05,16,22,43,9.00
2011,05,16,22,44,9.00
2011,05,16,22,45,9.00
2011,05,16,22,46,8.90
2011,05,16,22,47,8.90
2011,05,16,22,48,8.90
2011,05,16,22,49,8.90
2011,05,16,22,50,8.90
2011,05,16,22,51,8.90
2011,05,16,22,52,8.90
2011,05,16,22,53,8.80
2011,05,16,22,54,8.80
2011,05,16,22,55,8.80
2011,05,16,22,56,8.70
2011,05,16,22,57,8.60
2011,05,16,22,58,8.60
2011,05,16,22,59,8.60
2011,05,16,23,00,8.60
2011,05,16,23,01,8.60
2011,05,16,23,02,8.60
2011,05,16,23,03,8.60
2011,05,16,23,04,8.60
2011,05,16,23,05,8.60
2011,05,16,23,06,8.60
2011,05,16,23,07,8.60
2011,05,16,23,08,8.60
2011,05,16,23,09,8.60
2011,05,16,23,10,8.70
2011,05,16,23,11,8.70
2011,05,16,23,12,8.70
2011,05,16,23,13,8.60
2011,05,16,23,14,8.60
2011,05,16,23,15,8.60
2011,05,16,23,16,8.60
2011,05,16,23,17,8.60
2011,05,16,23,18,8.60
2011,05,16,23,19,8.60
2011,05,16,23,20,8.60
2011,05,16,23,21,8.60
2011,05,16,23,22,8.60
2011,05,16,23,23,8.60
2011,05,16,23,24,8.60
2011,05,16,23,25,8.60
2011,05,16,23,26,8.60
2011,05,16,23,27,8.60
2011,05,16,23,28,8.60
2011,05,16,23,29,8.60
2011,05,16,23,30,8.60
2011,05,16,23,31,8.50
2011,05,16,23,32,8.60
2011,05,16,23,33,8.60
2011,05,16,23,34,8.50
2011,05,16,23,35,8.50
2011,05,16,23,36,8.50
2011,05,16,23,37,8.50
2011,05,16,23,38,8.40
2011,05,16,23,39,8.40
2011,05,16,23,40,8.40
2011,05,16,23,41,8.40
2011,05,16,23,42,8.40
2011,05,16,23,43,8.40
2011,05,16,23,44,8.40
2011,05,16,23,45,8.40
2011,05,16,23,46,8.40
2011,05,16,23,47,8.40
2011,05,16,23,48,8.40
2011,05,16,23,49,8.40
2011,05,16,23,50,8.40
2011,05,16,23,51,8.40
2011,05,16,23,52,8.40
2011,05,16,23,53,8.30
2011,05,16,23,54,8.30
2011,05,16,23,55,8.30
2011,05,16,23,56,8.30
2011,05,16,23,57,8.30
2011,05,16,23,58,8.30
2011,05,16,23,59,8.30
